TimeCDT,TemperatureF,Dew PointF,Humidity,Sea Level PressureIn,VisibilityMPH,Wind Direction,Wind SpeedMPH,Gust SpeedMPH,PrecipitationIn,Events,Conditions,WindDirDegrees,DateUTC
12:54 AM,28.9,23.0,78,30.38,10.0,Calm,Calm,-,N/A,,Clear,0,2012-10-28 05:54:00
1:54 AM,28.0,23.0,81,30.38,10.0,Calm,Calm,-,N/A,,Clear,0,2012-10-28 06:54:00
2:54 AM,28.0,21.9,78,30.38,10.0,Calm,Calm,-,N/A,,Clear,0,2012-10-28 07:54:00
3:54 AM,27.0,21.9,81,30.38,10.0,Calm,Calm,-,N/A,,Clear,0,2012-10-28 08:54:00
4:54 AM,27.0,21.0,78,30.38,10.0,Calm,Calm,-,N/A,,Clear,0,2012-10-28 09:54:00
5:54 AM,26.1,21.0,81,30.39,10.0,Calm,Calm,-,N/A,,Clear,0,2012-10-28 10:54:00
6:54 AM,25.0,21.9,88,30.40,10.0,Calm,Calm,-,N/A,,Clear,0,2012-10-28 11:54:00
7:54 AM,24.1,21.0,88,30.42,9.0,Calm,Calm,-,N/A,,Clear,0,2012-10-28 12:54:00
8:54 AM,28.0,24.1,85,30.42,10.0,Calm,Calm,-,N/A,,Clear,0,2012-10-28 13:54:00
9:54 AM,34.0,21.0,59,30.41,10.0,Calm,Calm,-,N/A,,Clear,0,2012-10-28 14:54:00
10:54 AM,37.9,19.9,48,30.41,10.0,Calm,Calm,-,N/A,,Clear,0,2012-10-28 15:54:00
12:54 PM,42.1,18.0,38,30.38,10.0,ESE,3.5,-,N/A,,Clear,120,2012-10-28 17:54:00
1:54 PM,44.1,18.0,35,30.37,10.0,Calm,Calm,-,N/A,,Clear,0,2012-10-28 18:54:00
2:54 PM,45.0,18.0,34,30.35,10.0,ESE,4.6,-,N/A,,Clear,110,2012-10-28 19:54:00
3:54 PM,44.1,17.1,34,30.35,10.0,Calm,Calm,-,N/A,,Clear,0,2012-10-28 20:54:00
4:54 PM,45.0,17.1,33,30.35,10.0,Calm,Calm,-,N/A,,Clear,0,2012-10-28 21:54:00
5:54 PM,42.1,17.1,37,30.35,10.0,Calm,Calm,-,N/A,,Clear,0,2012-10-28 22:54:00
6:54 PM,37.0,21.0,52,30.36,10.0,Calm,Calm,-,N/A,,Clear,0,2012-10-28 23:54:00
7:54 PM,34.0,21.9,61,30.38,10.0,Calm,Calm,-,N/A,,Clear,0,2012-10-29 00:54:00
8:54 PM,32.0,21.0,64,30.38,10.0,East,3.5,-,N/A,,Clear,80,2012-10-29 01:54:00
9:54 PM,30.0,21.9,72,30.38,10.0,Calm,Calm,-,N/A,,Clear,0,2012-10-29 02:54:00
10:54 PM,28.0,21.0,75,30.37,10.0,Calm,Calm,-,N/A,,Clear,0,2012-10-29 03:54:00
11:54 PM,28.9,21.0,72,30.38,10.0,NW,3.5,-,N/A,,Clear,310,2012-10-29 04:54:00